Year,Month,Day,Hour,Minute,Value (Times are PST for temperature in C)
2016,04,22,00,00,11.10
2016,04,22,00,01,11.10
2016,04,22,00,02,11.10
2016,04,22,00,03,11.10
2016,04,22,00,04,11.10
2016,04,22,00,05,11.10
2016,04,22,00,06,11.20
2016,04,22,00,07,11.20
2016,04,22,00,08,11.20
2016,04,22,00,09,11.20
2016,04,22,00,10,11.20
2016,04,22,00,11,11.20
2016,04,22,00,12,11.20
2016,04,22,00,13,11.20
2016,04,22,00,14,11.20
2016,04,22,00,15,11.20
2016,04,22,00,16,11.20
2016,04,22,00,17,11.20
2016,04,22,00,18,11.20
2016,04,22,00,19,11.20
2016,04,22,00,20,11.20
2016,04,22,00,21,11.30
2016,04,22,00,22,11.30
2016,04,22,00,23,11.30
2016,04,22,00,24,11.30
2016,04,22,00,25,11.40
2016,04,22,00,26,11.40
2016,04,22,00,27,11.40
2016,04,22,00,28,11.40
2016,04,22,00,29,11.40
2016,04,22,00,30,11.40
2016,04,22,00,31,11.40
2016,04,22,00,32,11.40
2016,04,22,00,33,11.40
2016,04,22,00,34,11.40
2016,04,22,00,35,11.40
2016,04,22,00,36,11.30
2016,04,22,00,37,11.30
2016,04,22,00,38,11.20
2016,04,22,00,39,11.10
2016,04,22,00,40,11.10
2016,04,22,00,41,11.10
2016,04,22,00,42,11.10
2016,04,22,00,43,11.10
2016,04,22,00,44,11.10
2016,04,22,00,45,11.10
2016,04,22,00,46,11.10
2016,04,22,00,47,11.10
2016,04,22,00,48,11.10
2016,04,22,00,49,11.10
2016,04,22,00,50,11.00
2016,04,22,00,51,11.10
2016,04,22,00,52,11.10
2016,04,22,00,53,11.10
2016,04,22,00,54,11.10
2016,04,22,00,55,11.10
2016,04,22,00,56,11.10
2016,04,22,00,57,11.10
2016,04,22,00,58,11.10
2016,04,22,00,59,11.10
2016,04,22,01,00,11.10
2016,04,22,01,01,11.10
2016,04,22,01,02,11.20
2016,04,22,01,03,11.20
2016,04,22,01,04,11.20
2016,04,22,01,05,11.20
2016,04,22,01,06,11.20
2016,04,22,01,07,11.20
2016,04,22,01,08,11.20
2016,04,22,01,09,11.20
2016,04,22,01,10,11.20
2016,04,22,01,11,11.20
2016,04,22,01,12,11.20
2016,04,22,01,13,11.20
2016,04,22,01,14,11.20
2016,04,22,01,15,11.20
2016,04,22,01,16,11.20
2016,04,22,01,17,11.30
2016,04,22,01,18,11.30
2016,04,22,01,19,11.30
2016,04,22,01,20,11.30
2016,04,22,01,21,11.30
2016,04,22,01,22,11.20
2016,04,22,01,23,11.20
2016,04,22,01,24,11.20
2016,04,22,01,25,11.20
2016,04,22,01,26,11.20
2016,04,22,01,27,11.20
2016,04,22,01,28,11.20
2016,04,22,01,29,11.20
2016,04,22,01,30,11.20
2016,04,22,01,31,11.20
2016,04,22,01,32,11.20
2016,04,22,01,33,11.20
2016,04,22,01,34,11.20
2016,04,22,01,35,11.20
2016,04,22,01,36,11.20
2016,04,22,01,37,11.30
2016,04,22,01,38,11.30
2016,04,22,01,39,11.30
2016,04,22,01,40,11.30
2016,04,22,01,41,11.30
2016,04,22,01,42,11.40
2016,04,22,01,43,11.40
2016,04,22,01,44,11.40
2016,04,22,01,45,11.40
2016,04,22,01,46,11.40
2016,04,22,01,47,11.40
2016,04,22,01,48,11.30
2016,04,22,01,49,11.30
2016,04,22,01,50,11.30
2016,04,22,01,51,11.20
2016,04,22,01,52,11.20
2016,04,22,01,53,11.20
2016,04,22,01,54,11.20
2016,04,22,01,55,11.20
2016,04,22,01,56,11.10
2016,04,22,01,57,11.10
2016,04,22,01,58,11.10
2016,04,22,01,59,11.10
2016,04,22,02,00,11.10
2016,04,22,02,01,11.10
2016,04,22,02,02,11.10
2016,04,22,02,03,11.10
2016,04,22,02,04,11.10
2016,04,22,02,05,11.10
2016,04,22,02,06,11.00
2016,04,22,02,07,11.00
2016,04,22,02,08,11.00
2016,04,22,02,09,11.00
2016,04,22,02,10,11.00
2016,04,22,02,11,11.00
2016,04,22,02,12,11.00
2016,04,22,02,13,10.90
2016,04,22,02,14,10.90
2016,04,22,02,15,10.90
2016,04,22,02,16,10.90
2016,04,22,02,17,10.90
2016,04,22,02,18,10.90
2016,04,22,02,19,10.90
2016,04,22,02,20,10.90
2016,04,22,02,21,10.80
2016,04,22,02,22,10.80
2016,04,22,02,23,10.80
2016,04,22,02,24,10.80
2016,04,22,02,25,10.80
2016,04,22,02,26,10.80
2016,04,22,02,27,10.80
2016,04,22,02,28,10.80
2016,04,22,02,29,10.70
2016,04,22,02,30,10.70
2016,04,22,02,31,10.60
2016,04,22,02,32,10.60
2016,04,22,02,33,10.60
2016,04,22,02,34,10.60
2016,04,22,02,35,10.60
2016,04,22,02,36,10.60
2016,04,22,02,37,10.60
2016,04,22,02,38,10.60
2016,04,22,02,39,10.60
2016,04,22,02,40,10.60
2016,04,22,02,41,10.50
2016,04,22,02,42,10.50
2016,04,22,02,43,10.50
2016,04,22,02,44,10.50
2016,04,22,02,45,10.50
2016,04,22,02,46,10.40
2016,04,22,02,47,10.40
2016,04,22,02,48,10.40
2016,04,22,02,49,10.40
2016,04,22,02,50,10.40
2016,04,22,02,51,10.40
2016,04,22,02,52,10.40
2016,04,22,02,53,10.30
2016,04,22,02,54,10.30
2016,04,22,02,55,10.30
2016,04,22,02,56,10.30
2016,04,22,02,57,10.30
2016,04,22,02,58,10.30
2016,04,22,02,59,10.30
2016,04,22,03,00,10.30
2016,04,22,03,01,10.20
2016,04,22,03,02,10.20
2016,04,22,03,03,10.20
2016,04,22,03,04,10.20
2016,04,22,03,05,10.20
2016,04,22,03,06,10.10
2016,04,22,03,07,10.10
2016,04,22,03,08,10.10
2016,04,22,03,09,10.10
2016,04,22,03,10,10.10
2016,04,22,03,11,10.10
2016,04,22,03,12,10.10
2016,04,22,03,13,10.00
2016,04,22,03,14,10.00
2016,04,22,03,15,10.00
2016,04,22,03,16,10.00
2016,04,22,03,17,10.00
2016,04,22,03,18,10.00
2016,04,22,03,19,10.00
2016,04,22,03,20,10.00
2016,04,22,03,21,10.00
2016,04,22,03,22,9.90
2016,04,22,03,23,9.90
2016,04,22,03,24,9.90
2016,04,22,03,25,9.90
2016,04,22,03,26,9.90
2016,04,22,03,27,9.80
2016,04,22,03,28,9.80
2016,04,22,03,29,9.80
2016,04,22,03,30,9.70
2016,04,22,03,31,9.60
2016,04,22,03,32,9.60
2016,04,22,03,33,9.50
2016,04,22,03,34,9.40
2016,04,22,03,35,9.40
2016,04,22,03,36,9.40
2016,04,22,03,37,9.30
2016,04,22,03,38,9.30
2016,04,22,03,39,9.30
2016,04,22,03,40,9.30
2016,04,22,03,41,9.30
2016,04,22,03,42,9.30
2016,04,22,03,43,9.40
2016,04,22,03,44,9.40
2016,04,22,03,45,9.40
2016,04,22,03,46,9.40
2016,04,22,03,47,9.40
2016,04,22,03,48,9.50
2016,04,22,03,49,9.50
2016,04,22,03,50,9.50
2016,04,22,03,51,9.50
2016,04,22,03,52,9.50
2016,04,22,03,53,9.60
2016,04,22,03,54,9.60
2016,04,22,03,55,9.60
2016,04,22,03,56,9.60
2016,04,22,03,57,9.60
2016,04,22,03,58,9.60
2016,04,22,03,59,9.60
2016,04,22,04,00,9.60
2016,04,22,04,01,9.60
2016,04,22,04,02,9.60
2016,04,22,04,03,9.50
2016,04,22,04,04,9.50
2016,04,22,04,05,9.40
2016,04,22,04,06,9.40
2016,04,22,04,07,9.30
2016,04,22,04,08,9.30
2016,04,22,04,09,9.30
2016,04,22,04,10,9.30
2016,04,22,04,11,9.20
2016,04,22,04,12,9.20
2016,04,22,04,13,9.20
2016,04,22,04,14,9.20
2016,04,22,04,15,9.20
2016,04,22,04,16,9.20
2016,04,22,04,17,9.20
2016,04,22,04,18,9.20
2016,04,22,04,19,9.20
2016,04,22,04,20,9.20
2016,04,22,04,21,9.20
2016,04,22,04,22,9.10
2016,04,22,04,23,9.10
2016,04,22,04,24,9.10
2016,04,22,04,25,9.00
2016,04,22,04,26,8.90
2016,04,22,04,27,8.90
2016,04,22,04,28,8.90
2016,04,22,04,29,8.90
2016,04,22,04,30,8.80
2016,04,22,04,31,8.80
2016,04,22,04,32,8.80
2016,04,22,04,33,8.80
2016,04,22,04,34,8.80
2016,04,22,04,35,8.80
2016,04,22,04,36,8.80
2016,04,22,04,37,8.80
2016,04,22,04,38,8.80
2016,04,22,04,39,8.80
2016,04,22,04,40,8.80
2016,04,22,04,41,8.70
2016,04,22,04,42,8.70
2016,04,22,04,43,8.70
2016,04,22,04,44,8.70
2016,04,22,04,45,8.70
2016,04,22,04,46,8.70
2016,04,22,04,47,8.70
2016,04,22,04,48,8.60
2016,04,22,04,49,8.60
2016,04,22,04,50,8.60
2016,04,22,04,51,8.70
2016,04,22,04,52,8.70
2016,04,22,04,53,8.70
2016,04,22,04,54,8.70
2016,04,22,04,55,8.70
2016,04,22,04,56,8.70
2016,04,22,04,57,8.70
2016,04,22,04,58,8.70
2016,04,22,04,59,8.80
2016,04,22,05,00,8.80
2016,04,22,05,01,8.80
2016,04,22,05,02,8.80
2016,04,22,05,03,8.80
2016,04,22,05,04,8.80
2016,04,22,05,05,8.80
2016,04,22,05,06,8.80
2016,04,22,05,07,8.80
2016,04,22,05,08,8.90
2016,04,22,05,09,8.90
2016,04,22,05,10,8.90
2016,04,22,05,11,8.90
2016,04,22,05,12,8.90
2016,04,22,05,13,8.90
2016,04,22,05,14,8.90
2016,04,22,05,15,8.90
2016,04,22,05,16,8.90
2016,04,22,05,17,9.00
2016,04,22,05,18,9.00
2016,04,22,05,19,9.00
2016,04,22,05,20,8.90
2016,04,22,05,21,8.90
2016,04,22,05,22,8.80
2016,04,22,05,23,8.80
2016,04,22,05,24,8.70
2016,04,22,05,25,8.60
2016,04,22,05,26,8.60
2016,04,22,05,27,8.50
2016,04,22,05,28,8.50
2016,04,22,05,29,8.50
2016,04,22,05,30,8.50
2016,04,22,05,31,8.40
2016,04,22,05,32,8.40
2016,04,22,05,33,8.40
2016,04,22,05,34,8.40
2016,04,22,05,35,8.40
2016,04,22,05,36,8.40
2016,04,22,05,37,8.40
2016,04,22,05,38,8.40
2016,04,22,05,39,8.50
2016,04,22,05,40,8.50
2016,04,22,05,41,8.50
2016,04,22,05,42,8.50
2016,04,22,05,43,8.50
2016,04,22,05,44,8.50
2016,04,22,05,45,8.50
2016,04,22,05,46,8.50
2016,04,22,05,47,8.50
2016,04,22,05,48,8.50
2016,04,22,05,49,8.50
2016,04,22,05,50,8.50
2016,04,22,05,51,8.50
2016,04,22,05,52,8.50
2016,04,22,05,53,8.50
2016,04,22,05,54,8.50
2016,04,22,05,55,8.50
2016,04,22,05,56,8.50
2016,04,22,05,57,8.50
2016,04,22,05,58,8.50
2016,04,22,05,59,8.60
2016,04,22,06,00,8.60
2016,04,22,06,01,8.60
2016,04,22,06,02,8.60
2016,04,22,06,03,8.60
2016,04,22,06,04,8.60
2016,04,22,06,05,8.60
2016,04,22,06,06,8.60
2016,04,22,06,07,8.70
2016,04,22,06,08,8.70
2016,04,22,06,09,8.70
2016,04,22,06,10,8.70
2016,04,22,06,11,8.70
2016,04,22,06,12,8.70
2016,04,22,06,13,8.70
2016,04,22,06,14,8.70
2016,04,22,06,15,8.70
2016,04,22,06,16,8.70
2016,04,22,06,17,8.70
2016,04,22,06,18,8.70
2016,04,22,06,19,8.60
2016,04,22,06,20,8.60
2016,04,22,06,21,8.60
2016,04,22,06,22,8.50
2016,04,22,06,23,8.50
2016,04,22,06,24,8.40
2016,04,22,06,25,8.40
2016,04,22,06,26,8.40
2016,04,22,06,27,8.40
2016,04,22,06,28,8.40
2016,04,22,06,29,8.40
2016,04,22,06,30,8.40
2016,04,22,06,31,8.40
2016,04,22,06,32,8.40
2016,04,22,06,33,8.30
2016,04,22,06,34,8.30
2016,04,22,06,35,8.30
2016,04,22,06,36,8.30
2016,04,22,06,37,8.30
2016,04,22,06,38,8.30
2016,04,22,06,39,8.30
2016,04,22,06,40,8.30
2016,04,22,06,41,8.40
2016,04,22,06,42,8.40
2016,04,22,06,43,8.40
2016,04,22,06,44,8.40
2016,04,22,06,45,8.40
2016,04,22,06,46,8.40
2016,04,22,06,47,8.40
2016,04,22,06,48,8.40
2016,04,22,06,49,8.40
2016,04,22,06,50,8.40
2016,04,22,06,51,8.50
2016,04,22,06,52,8.50
2016,04,22,06,53,8.50
2016,04,22,06,54,8.50
2016,04,22,06,55,8.50
2016,04,22,06,56,8.50
2016,04,22,06,57,8.50
2016,04,22,06,58,8.40
2016,04,22,06,59,8.40
2016,04,22,07,00,8.40
2016,04,22,07,01,8.40
2016,04,22,07,02,8.40
2016,04,22,07,03,8.40
2016,04,22,07,04,8.40
2016,04,22,07,05,8.40
2016,04,22,07,06,8.40
2016,04,22,07,07,8.40
2016,04,22,07,08,8.40
2016,04,22,07,09,8.40
2016,04,22,07,10,8.40
2016,04,22,07,11,8.40
2016,04,22,07,12,8.50
2016,04,22,07,13,8.50
2016,04,22,07,14,8.60
2016,04,22,07,15,8.60
2016,04,22,07,16,8.60
2016,04,22,07,17,8.60
2016,04,22,07,18,8.60
2016,04,22,07,19,8.70
2016,04,22,07,20,8.70
2016,04,22,07,21,8.70
2016,04,22,07,22,8.80
2016,04,22,07,23,8.80
2016,04,22,07,24,8.80
2016,04,22,07,25,8.80
2016,04,22,07,26,8.80
2016,04,22,07,27,8.80
2016,04,22,07,28,8.80
2016,04,22,07,29,8.80
2016,04,22,07,30,8.80
2016,04,22,07,31,8.80
2016,04,22,07,32,8.90
2016,04,22,07,33,8.90
2016,04,22,07,34,8.90
2016,04,22,07,35,8.90
2016,04,22,07,36,8.90
2016,04,22,07,37,8.90
2016,04,22,07,38,8.90
2016,04,22,07,39,8.90
2016,04,22,07,40,9.00
2016,04,22,07,41,9.00
2016,04,22,07,42,9.00
2016,04,22,07,43,9.10
2016,04,22,07,44,9.10
2016,04,22,07,45,9.10
2016,04,22,07,46,9.20
2016,04,22,07,47,9.20
2016,04,22,07,48,9.20
2016,04,22,07,49,9.20
2016,04,22,07,50,9.30
2016,04,22,07,51,9.30
2016,04,22,07,52,9.30
2016,04,22,07,53,9.40
2016,04,22,07,54,9.40
2016,04,22,07,55,9.40
2016,04,22,07,56,9.40
2016,04,22,07,57,9.50
2016,04,22,07,58,9.50
2016,04,22,07,59,9.50
2016,04,22,08,00,9.60
2016,04,22,08,01,9.60
2016,04,22,08,02,9.60
2016,04,22,08,03,9.70
2016,04,22,08,04,9.70
2016,04,22,08,05,9.80
2016,04,22,08,06,9.80
2016,04,22,08,07,9.90
2016,04,22,08,08,9.90
2016,04,22,08,09,9.90
2016,04,22,08,10,10.00
2016,04,22,08,11,10.10
2016,04,22,08,12,10.10
2016,04,22,08,13,10.20
2016,04,22,08,14,10.20
2016,04,22,08,15,10.20
2016,04,22,08,16,10.30
2016,04,22,08,17,10.30
2016,04,22,08,18,10.30
2016,04,22,08,19,10.30
2016,04,22,08,20,10.30
2016,04,22,08,21,10.30
2016,04,22,08,22,10.30
2016,04,22,08,23,10.30
2016,04,22,08,24,10.30
2016,04,22,08,25,10.30
2016,04,22,08,26,10.30
2016,04,22,08,27,10.30
2016,04,22,08,28,10.30
2016,04,22,08,29,10.30
2016,04,22,08,30,10.30
2016,04,22,08,31,10.30
2016,04,22,08,32,10.30
2016,04,22,08,33,10.30
2016,04,22,08,34,10.30
2016,04,22,08,35,10.30
2016,04,22,08,36,10.30
2016,04,22,08,37,10.30
2016,04,22,08,38,10.40
2016,04,22,08,39,10.40
2016,04,22,08,40,10.40
2016,04,22,08,41,10.50
2016,04,22,08,42,10.50
2016,04,22,08,43,10.60
2016,04,22,08,44,10.60
2016,04,22,08,45,10.60
2016,04,22,08,46,10.60
2016,04,22,08,47,10.70
2016,04,22,08,48,10.70
2016,04,22,08,49,10.80
2016,04,22,08,50,10.80
2016,04,22,08,51,10.90
2016,04,22,08,52,10.90
2016,04,22,08,53,11.00
2016,04,22,08,54,11.00
2016,04,22,08,55,11.10
2016,04,22,08,56,11.10
2016,04,22,08,57,11.10
2016,04,22,08,58,11.20
2016,04,22,08,59,11.20
2016,04,22,09,00,11.30
2016,04,22,09,01,11.30
2016,04,22,09,02,11.40
2016,04,22,09,03,11.50
2016,04,22,09,04,11.50
2016,04,22,09,05,11.50
2016,04,22,09,06,11.60
2016,04,22,09,07,11.60
2016,04,22,09,08,11.60
2016,04,22,09,09,11.60
2016,04,22,09,10,11.70
2016,04,22,09,11,11.70
2016,04,22,09,12,11.80
2016,04,22,09,13,11.80
2016,04,22,09,14,11.90
2016,04,22,09,15,12.00
2016,04,22,09,16,12.00
2016,04,22,09,17,12.10
2016,04,22,09,18,12.10
2016,04,22,09,19,12.20
2016,04,22,09,20,12.20
2016,04,22,09,21,12.20
2016,04,22,09,22,12.30
2016,04,22,09,23,12.30
2016,04,22,09,24,12.30
2016,04,22,09,25,12.30
2016,04,22,09,26,12.30
2016,04,22,09,27,12.30
2016,04,22,09,28,12.30
2016,04,22,09,29,12.30
2016,04,22,09,30,12.30
2016,04,22,09,31,12.30
2016,04,22,09,32,12.40
2016,04,22,09,33,12.40
2016,04,22,09,34,12.40
2016,04,22,09,35,12.50
2016,04,22,09,36,12.50
2016,04,22,09,37,12.60
2016,04,22,09,38,12.60
2016,04,22,09,39,12.60
2016,04,22,09,40,12.70
2016,04,22,09,41,12.70
2016,04,22,09,42,12.80
2016,04,22,09,43,12.80
2016,04,22,09,44,12.80
2016,04,22,09,45,12.80
2016,04,22,09,46,12.80
2016,04,22,09,47,12.90
2016,04,22,09,48,12.90
2016,04,22,09,49,12.90
2016,04,22,09,50,13.00
2016,04,22,09,51,13.00
2016,04,22,09,52,13.10
2016,04,22,09,53,13.10
2016,04,22,09,54,13.20
2016,04,22,09,55,13.20
2016,04,22,09,56,13.20
2016,04,22,09,57,13.20
2016,04,22,09,58,13.30
2016,04,22,09,59,13.30
2016,04,22,10,00,13.30
2016,04,22,10,01,13.30
2016,04,22,10,02,13.40
2016,04,22,10,03,13.40
2016,04,22,10,04,13.40
2016,04,22,10,05,13.50
2016,04,22,10,06,13.50
2016,04,22,10,07,13.50
2016,04,22,10,08,13.50
2016,04,22,10,09,13.60
2016,04,22,10,10,13.60
2016,04,22,10,11,13.60
2016,04,22,10,12,13.70
2016,04,22,10,13,13.70
2016,04,22,10,14,13.70
2016,04,22,10,15,13.70
2016,04,22,10,16,13.80
2016,04,22,10,17,13.80
2016,04,22,10,18,13.70
2016,04,22,10,19,13.70
2016,04,22,10,20,13.70
2016,04,22,10,21,13.70
2016,04,22,10,22,13.70
2016,04,22,10,23,13.70
2016,04,22,10,24,13.70
2016,04,22,10,25,13.70
2016,04,22,10,26,13.70
2016,04,22,10,27,13.70
2016,04,22,10,28,13.70
2016,04,22,10,29,13.70
2016,04,22,10,30,13.80
2016,04,22,10,31,13.80
2016,04,22,10,32,13.80
2016,04,22,10,33,13.80
2016,04,22,10,34,13.80
2016,04,22,10,35,13.80
2016,04,22,10,36,13.80
2016,04,22,10,37,13.80
2016,04,22,10,38,13.80
2016,04,22,10,39,13.70
2016,04,22,10,40,13.70
2016,04,22,10,41,13.70
2016,04,22,10,42,13.70
2016,04,22,10,43,13.70
2016,04,22,10,44,13.70
2016,04,22,10,45,13.60
2016,04,22,10,46,13.60
2016,04,22,10,47,13.60
2016,04,22,10,48,13.70
2016,04,22,10,49,13.70
2016,04,22,10,50,13.80
2016,04,22,10,51,13.80
2016,04,22,10,52,13.90
2016,04,22,10,53,13.90
2016,04,22,10,54,13.90
2016,04,22,10,55,14.00
2016,04,22,10,56,14.00
2016,04,22,10,57,14.10
2016,04,22,10,58,14.20
2016,04,22,10,59,14.20
2016,04,22,11,00,14.30
2016,04,22,11,01,14.30
2016,04,22,11,02,14.30
2016,04,22,11,03,14.40
2016,04,22,11,04,14.40
2016,04,22,11,05,14.40
2016,04,22,11,06,14.40
2016,04,22,11,07,14.40
2016,04,22,11,08,14.40
2016,04,22,11,09,14.50
2016,04,22,11,10,14.50
2016,04,22,11,11,14.50
2016,04,22,11,12,14.60
2016,04,22,11,13,14.60
2016,04,22,11,14,14.60
2016,04,22,11,15,14.60
2016,04,22,11,16,14.70
2016,04,22,11,17,14.70
2016,04,22,11,18,14.70
2016,04,22,11,19,14.70
2016,04,22,11,20,14.70
2016,04,22,11,21,14.80
2016,04,22,11,22,14.80
2016,04,22,11,23,14.90
2016,04,22,11,24,14.90
2016,04,22,11,25,14.90
2016,04,22,11,26,15.00
2016,04,22,11,27,15.00
2016,04,22,11,28,15.10
2016,04,22,11,29,15.10
2016,04,22,11,30,15.10
2016,04,22,11,31,15.10
2016,04,22,11,32,15.10
2016,04,22,11,33,15.20
2016,04,22,11,34,15.20
2016,04,22,11,35,15.20
2016,04,22,11,36,15.20
2016,04,22,11,37,15.20
2016,04,22,11,38,15.20
2016,04,22,11,39,15.20
2016,04,22,11,40,15.20
2016,04,22,11,41,15.20
2016,04,22,11,42,15.20
2016,04,22,11,43,15.20
2016,04,22,11,44,15.20
2016,04,22,11,45,15.10
2016,04,22,11,46,15.10
2016,04,22,11,47,15.10
2016,04,22,11,48,15.10
2016,04,22,11,49,15.10
2016,04,22,11,50,15.20
2016,04,22,11,51,15.20
2016,04,22,11,52,15.30
2016,04,22,11,53,15.30
2016,04,22,11,54,15.30
2016,04,22,11,55,15.40
2016,04,22,11,56,15.40
2016,04,22,11,57,15.50
2016,04,22,11,58,15.50
2016,04,22,11,59,15.60
2016,04,22,12,00,15.60
2016,04,22,12,01,15.70
2016,04,22,12,02,15.70
2016,04,22,12,03,15.80
2016,04,22,12,04,15.80
2016,04,22,12,05,15.80
2016,04,22,12,06,15.80
2016,04,22,12,07,15.80
2016,04,22,12,08,15.80
2016,04,22,12,09,15.80
2016,04,22,12,10,15.80
2016,04,22,12,11,15.80
2016,04,22,12,12,15.80
2016,04,22,12,13,15.80
2016,04,22,12,14,15.80
2016,04,22,12,15,15.80
2016,04,22,12,16,15.90
2016,04,22,12,17,16.00
2016,04,22,12,18,16.10
2016,04,22,12,19,16.20
2016,04,22,12,20,16.30
2016,04,22,12,21,16.40
2016,04,22,12,22,16.50
2016,04,22,12,23,16.60
2016,04,22,12,24,16.70
2016,04,22,12,25,16.70
2016,04,22,12,26,16.80
2016,04,22,12,27,16.80
2016,04,22,12,28,16.80
2016,04,22,12,29,16.80
2016,04,22,12,30,16.80
2016,04,22,12,31,16.80
2016,04,22,12,32,16.80
2016,04,22,12,33,16.90
2016,04,22,12,34,16.90
2016,04,22,12,35,16.90
2016,04,22,12,36,16.90
2016,04,22,12,37,16.80
2016,04,22,12,38,16.80
2016,04,22,12,39,16.80
2016,04,22,12,40,16.80
2016,04,22,12,41,16.70
2016,04,22,12,42,16.70
2016,04,22,12,43,16.70
2016,04,22,12,44,16.70
2016,04,22,12,45,16.80
2016,04,22,12,46,16.80
2016,04,22,12,47,16.80
2016,04,22,12,48,16.80
2016,04,22,12,49,16.80
2016,04,22,12,50,16.80
2016,04,22,12,51,16.80
2016,04,22,12,52,16.80
2016,04,22,12,53,16.80
2016,04,22,12,54,16.80
2016,04,22,12,55,16.80
2016,04,22,12,56,16.80
2016,04,22,12,57,16.90
2016,04,22,12,58,16.90
2016,04,22,12,59,16.90
2016,04,22,13,00,16.90
2016,04,22,13,01,16.90
2016,04,22,13,02,16.90
2016,04,22,13,03,16.80
2016,04,22,13,04,16.80
2016,04,22,13,05,16.80
2016,04,22,13,06,16.70
2016,04,22,13,07,16.70
2016,04,22,13,08,16.70
2016,04,22,13,09,16.70
2016,04,22,13,10,16.70
2016,04,22,13,11,16.70
2016,04,22,13,12,16.70
2016,04,22,13,13,16.70
2016,04,22,13,14,16.70
2016,04,22,13,15,16.70
2016,04,22,13,16,16.70
2016,04,22,13,17,16.70
2016,04,22,13,18,16.80
2016,04,22,13,19,16.90
2016,04,22,13,20,16.90
2016,04,22,13,21,17.00
2016,04,22,13,22,17.00
2016,04,22,13,23,17.10
2016,04,22,13,24,17.00
2016,04,22,13,25,17.00
2016,04,22,13,26,17.00
2016,04,22,13,27,17.00
2016,04,22,13,28,17.10
2016,04,22,13,29,17.10
2016,04,22,13,30,17.10
2016,04,22,13,31,17.10
2016,04,22,13,32,17.10
2016,04,22,13,33,17.10
2016,04,22,13,34,17.00
2016,04,22,13,35,17.10
2016,04,22,13,36,17.10
2016,04,22,13,37,17.10
2016,04,22,13,38,17.10
2016,04,22,13,39,17.20
2016,04,22,13,40,17.20
2016,04,22,13,41,17.20
2016,04,22,13,42,17.30
2016,04,22,13,43,17.30
2016,04,22,13,44,17.40
2016,04,22,13,45,17.50
2016,04,22,13,46,17.60
2016,04,22,13,47,17.60
2016,04,22,13,48,17.50
2016,04,22,13,49,17.40
2016,04,22,13,50,17.40
2016,04,22,13,51,17.30
2016,04,22,13,52,17.20
2016,04,22,13,53,17.10
2016,04,22,13,54,17.00
2016,04,22,13,55,16.90
2016,04,22,13,56,16.80
2016,04,22,13,57,16.70
2016,04,22,13,58,16.70
2016,04,22,13,59,16.70
2016,04,22,14,00,16.70
2016,04,22,14,01,16.60
2016,04,22,14,02,16.50
2016,04,22,14,03,16.40
2016,04,22,14,04,16.40
2016,04,22,14,05,16.30
2016,04,22,14,06,16.20
2016,04,22,14,07,16.20
2016,04,22,14,08,16.10
2016,04,22,14,09,16.10
2016,04,22,14,10,16.10
2016,04,22,14,11,16.00
2016,04,22,14,12,16.00
2016,04,22,14,13,15.90
2016,04,22,14,14,15.90
2016,04,22,14,15,15.90
2016,04,22,14,16,15.80
2016,04,22,14,17,15.80
2016,04,22,14,18,15.80
2016,04,22,14,19,15.80
2016,04,22,14,20,15.80
2016,04,22,14,21,15.80
2016,04,22,14,22,15.80
2016,04,22,14,23,15.80
2016,04,22,14,24,15.80
2016,04,22,14,25,15.80
2016,04,22,14,26,15.70
2016,04,22,14,27,15.70
2016,04,22,14,28,15.70
2016,04,22,14,29,15.80
2016,04,22,14,30,15.80
2016,04,22,14,31,15.80
2016,04,22,14,32,15.80
2016,04,22,14,33,15.70
2016,04,22,14,34,15.70
2016,04,22,14,35,15.70
2016,04,22,14,36,15.70
2016,04,22,14,37,15.70
2016,04,22,14,38,15.70
2016,04,22,14,39,15.70
2016,04,22,14,40,15.70
2016,04,22,14,41,15.70
2016,04,22,14,42,15.70
2016,04,22,14,43,15.70
2016,04,22,14,44,15.70
2016,04,22,14,45,15.70
2016,04,22,14,46,15.70
2016,04,22,14,47,15.70
2016,04,22,14,48,15.70
2016,04,22,14,49,15.70
2016,04,22,14,50,15.70
2016,04,22,14,51,15.70
2016,04,22,14,52,15.70
2016,04,22,14,53,15.70
2016,04,22,14,54,15.70
2016,04,22,14,55,15.70
2016,04,22,14,56,15.70
2016,04,22,14,57,15.60
2016,04,22,14,58,15.50
2016,04,22,14,59,15.50
2016,04,22,15,00,15.50
2016,04,22,15,01,15.50
2016,04,22,15,02,15.50
2016,04,22,15,03,15.50
2016,04,22,15,04,15.50
2016,04,22,15,05,15.40
2016,04,22,15,06,15.40
2016,04,22,15,07,15.40
2016,04,22,15,08,15.40
2016,04,22,15,09,15.40
2016,04,22,15,10,15.40
2016,04,22,15,11,15.40
2016,04,22,15,12,15.40
2016,04,22,15,13,15.40
2016,04,22,15,14,15.40
2016,04,22,15,15,15.40
2016,04,22,15,16,15.40
2016,04,22,15,17,15.40
2016,04,22,15,18,15.40
2016,04,22,15,19,15.40
2016,04,22,15,20,15.50
2016,04,22,15,21,15.50
2016,04,22,15,22,15.50
2016,04,22,15,23,15.60
2016,04,22,15,24,15.60
2016,04,22,15,25,15.60
2016,04,22,15,26,15.60
2016,04,22,15,27,15.60
2016,04,22,15,28,15.60
2016,04,22,15,29,15.60
2016,04,22,15,30,15.60
2016,04,22,15,31,15.60
2016,04,22,15,32,15.60
2016,04,22,15,33,15.60
2016,04,22,15,34,15.60
2016,04,22,15,35,15.60
2016,04,22,15,36,15.60
2016,04,22,15,37,15.60
2016,04,22,15,38,15.60
2016,04,22,15,39,15.60
2016,04,22,15,40,15.60
2016,04,22,15,41,15.60
2016,04,22,15,42,15.50
2016,04,22,15,43,15.50
2016,04,22,15,44,15.50
2016,04,22,15,45,15.40
2016,04,22,15,46,15.40
2016,04,22,15,47,15.40
2016,04,22,15,48,15.40
2016,04,22,15,49,15.40
2016,04,22,15,50,15.40
2016,04,22,15,51,15.40
2016,04,22,15,52,15.40
2016,04,22,15,53,15.40
2016,04,22,15,54,15.40
2016,04,22,15,55,15.40
2016,04,22,15,56,15.40
2016,04,22,15,57,15.40
2016,04,22,15,58,15.40
2016,04,22,15,59,15.50
2016,04,22,16,00,15.50
2016,04,22,16,01,15.50
2016,04,22,16,02,15.60
2016,04,22,16,03,15.60
2016,04,22,16,04,15.60
2016,04,22,16,05,15.60
2016,04,22,16,06,15.60
2016,04,22,16,07,15.60
2016,04,22,16,08,15.60
2016,04,22,16,09,15.60
2016,04,22,16,10,15.60
2016,04,22,16,11,15.70
2016,04,22,16,12,15.70
2016,04,22,16,13,15.70
2016,04,22,16,14,15.70
2016,04,22,16,15,15.70
2016,04,22,16,16,15.70
2016,04,22,16,17,15.70
2016,04,22,16,18,15.70
2016,04,22,16,19,15.70
2016,04,22,16,20,15.60
2016,04,22,16,21,15.60
2016,04,22,16,22,15.60
2016,04,22,16,23,15.60
2016,04,22,16,24,15.60
2016,04,22,16,25,15.50
2016,04,22,16,26,15.50
2016,04,22,16,27,15.60
2016,04,22,16,28,15.60
2016,04,22,16,29,15.60
2016,04,22,16,30,15.60
2016,04,22,16,31,15.60
2016,04,22,16,32,15.60
2016,04,22,16,33,15.60
2016,04,22,16,34,15.60
2016,04,22,16,35,15.60
2016,04,22,16,36,15.60
2016,04,22,16,37,15.60
2016,04,22,16,38,15.60
2016,04,22,16,39,15.60
2016,04,22,16,40,15.70
2016,04,22,16,41,15.70
2016,04,22,16,42,15.70
2016,04,22,16,43,15.80
2016,04,22,16,44,15.80
2016,04,22,16,45,15.90
2016,04,22,16,46,15.90
2016,04,22,16,47,15.90
2016,04,22,16,48,15.90
2016,04,22,16,49,15.90
2016,04,22,16,50,15.90
2016,04,22,16,51,15.90
2016,04,22,16,52,15.90
2016,04,22,16,53,15.90
2016,04,22,16,54,15.90
2016,04,22,16,55,15.90
2016,04,22,16,56,15.90
2016,04,22,16,57,16.00
2016,04,22,16,58,16.00
2016,04,22,16,59,16.00
2016,04,22,17,00,16.00
2016,04,22,17,01,16.00
2016,04,22,17,02,16.00
2016,04,22,17,03,16.00
2016,04,22,17,04,16.10
2016,04,22,17,05,16.10
2016,04,22,17,06,16.10
2016,04,22,17,07,16.10
2016,04,22,17,08,16.10
2016,04,22,17,09,16.10
2016,04,22,17,10,16.10
2016,04,22,17,11,16.10
2016,04,22,17,12,16.10
2016,04,22,17,13,16.00
2016,04,22,17,14,16.00
2016,04,22,17,15,15.90
2016,04,22,17,16,15.90
2016,04,22,17,17,15.80
2016,04,22,17,18,15.80
2016,04,22,17,19,15.80
2016,04,22,17,20,15.80
2016,04,22,17,21,15.70
2016,04,22,17,22,15.60
2016,04,22,17,23,15.60
2016,04,22,17,24,15.60
2016,04,22,17,25,15.50
2016,04,22,17,26,15.50
2016,04,22,17,27,15.50
2016,04,22,17,28,15.50
2016,04,22,17,29,15.40
2016,04,22,17,30,15.40
2016,04,22,17,31,15.40